sat.trackr.live / text

‹ back to catalog

HJS-9D

NORAD 68834 · 2026-091D

PAYLOAD ACTIVE UNKNOWN

§ Identity

Operator
Country
PRC
Launch date
2026-04-24
Launch site
XICLF
Launch vehicle
Mass (kg)
RCS (m²)

External: N2YO · Heavens-Above · Gunter

§ Orbital elements

Epoch: 2026-09-20T04:48:00.430272Z

Period
94.77 min
Inclination
55.0043°
Eccentricity
0.0013626
Mean motion
15.19442314 rev/d
Perigee alt
498.1 km
Apogee alt
516.9 km
Semi-major
6,885.7 km
B*
2.1407e-4
RAAN
326.4816°
Arg perigee
339.1730°
Mean anomaly
20.8733°
Rev number
2,264

§ Raw data

HJS-9D1 68834U 26091D   26263.20000498  .00004282  00000+0  21407-3 0  99912 68834  55.0043 326.4816 0013626 339.1730  20.8733 15.19442314 22643

JSON: /api/v1/satellites/68834 · /tle

For live sub-satellite position, see the globe view (requires WebGL).

§ Visibility from observer

Set your observer location to see the next 7 days of passes ≥ 10°. The values pass through the URL so the page stays shareable.

No JS? Fill the form by hand. The geolocation button needs JavaScript.